Time,TemperatureF,DewpointF,PressureIn,WindDirection,WindDirectionDegrees,WindSpeedMPH,WindSpeedGustMPH,Humidity,HourlyPrecipIn,Conditions,Clouds,dailyrainin,SoftwareType,DateUTC
2013-04-13 00:00:00,37.4,35.3,29.00,NW,315,0.0,0.0,92,0.00,,---,0.00,VWS V14.01,2013-04-13 04:00:00,
2013-04-13 00:05:00,37.4,35.6,29.00,NW,315,0.0,0.0,93,0.00,,---,0.00,VWS V14.01,2013-04-13 04:05:00,
2013-04-13 00:10:00,37.2,35.7,29.00,NW,315,0.0,0.0,94,0.00,,---,0.00,VWS V14.01,2013-04-13 04:10:00,
2013-04-13 00:15:00,37.2,35.9,29.00,NW,315,0.0,0.0,95,0.00,,---,0.00,VWS V14.01,2013-04-13 04:15:00,
2013-04-13 00:20:00,37.0,35.7,29.00,NW,315,0.0,0.0,95,0.00,,---,0.00,VWS V14.01,2013-04-13 04:20:00,
2013-04-13 00:25:00,36.9,35.6,29.00,NW,315,0.0,0.0,95,0.00,,---,0.00,VWS V14.01,2013-04-13 04:25:00,
2013-04-13 00:30:00,36.7,35.7,29.00,NW,315,0.0,0.0,96,0.00,,---,0.00,VWS V14.01,2013-04-13 04:30:00,
2013-04-13 00:35:00,36.7,35.7,29.00,NW,315,0.0,0.0,96,0.00,,---,0.00,VWS V14.01,2013-04-13 04:35:00,
2013-04-13 00:40:00,36.7,35.9,29.00,NW,315,0.0,0.0,97,0.00,,---,0.00,VWS V14.01,2013-04-13 04:40:00,
2013-04-13 00:45:00,36.7,35.9,29.00,NW,315,0.0,0.0,97,0.00,,---,0.00,VWS V14.01,2013-04-13 04:45:00,
2013-04-13 00:50:00,36.5,36.0,29.00,NW,315,0.0,0.0,98,0.00,,---,0.00,VWS V14.01,2013-04-13 04:50:00,
2013-04-13 00:55:00,36.3,35.8,29.00,NW,315,0.0,0.0,98,0.00,,---,0.00,VWS V14.01,2013-04-13 04:55:00,
2013-04-13 01:00:00,36.3,35.8,29.00,NW,315,0.0,0.0,98,0.00,,---,0.00,VWS V14.01,2013-04-13 05:00:00,
2013-04-13 01:05:00,36.1,35.6,29.00,NW,315,0.0,0.0,98,0.00,,---,0.00,VWS V14.01,2013-04-13 05:05:00,
2013-04-13 01:10:00,36.1,35.6,29.00,NW,315,0.0,0.0,98,0.00,,---,0.00,VWS V14.01,2013-04-13 05:10:00,
2013-04-13 01:15:00,36.0,35.5,29.00,NW,315,0.0,0.0,98,0.00,,---,0.00,VWS V14.01,2013-04-13 05:15:00,
2013-04-13 01:20:00,36.0,35.5,29.00,NW,315,0.0,0.0,98,0.00,,---,0.00,VWS V14.01,2013-04-13 05:20:00,
2013-04-13 01:25:00,35.8,35.3,29.00,NW,315,0.0,0.0,98,0.00,,---,0.00,VWS V14.01,2013-04-13 05:25:00,
2013-04-13 01:30:00,35.6,35.1,29.00,NW,315,0.0,0.0,98,0.00,,---,0.00,VWS V14.01,2013-04-13 05:30:00,
2013-04-13 01:35:00,35.6,35.1,29.00,NW,315,0.0,0.0,98,0.00,,---,0.00,VWS V14.01,2013-04-13 05:35:00,
2013-04-13 01:40:00,35.6,35.1,29.00,NW,315,0.0,0.0,98,0.00,,---,0.00,VWS V14.01,2013-04-13 05:40:00,
2013-04-13 01:45:00,35.4,34.9,29.00,NW,315,0.0,0.0,98,0.00,,---,0.00,VWS V14.01,2013-04-13 05:45:00,
2013-04-13 01:50:00,35.4,34.9,29.00,NW,315,0.0,0.0,98,0.00,,---,0.00,VWS V14.01,2013-04-13 05:50:00,
2013-04-13 01:55:00,35.6,35.1,29.00,NW,315,0.0,0.0,98,0.00,,---,0.00,VWS V14.01,2013-04-13 05:55:00,
2013-04-13 02:00:00,35.6,35.1,29.03,NW,315,0.0,0.0,98,0.00,,---,0.00,VWS V14.01,2013-04-13 06:00:00,
2013-04-13 02:05:00,35.6,35.1,29.03,NW,315,0.0,0.0,98,0.00,,---,0.00,VWS V14.01,2013-04-13 06:05:00,
2013-04-13 02:10:00,35.6,35.1,29.03,NW,315,0.0,0.0,98,0.00,,---,0.00,VWS V14.01,2013-04-13 06:10:00,
2013-04-13 02:15:00,35.6,35.1,29.00,NW,315,0.0,0.0,98,0.00,,---,0.00,VWS V14.01,2013-04-13 06:15:00,
2013-04-13 02:20:00,35.6,35.1,29.00,NW,315,0.0,0.0,98,0.00,,---,0.00,VWS V14.01,2013-04-13 06:20:00,
2013-04-13 02:25:00,35.4,34.9,29.00,NW,315,0.0,0.0,98,0.00,,---,0.00,VWS V14.01,2013-04-13 06:25:00,
2013-04-13 02:30:00,35.4,34.9,29.00,NW,315,0.0,0.0,98,0.00,,---,0.00,VWS V14.01,2013-04-13 06:30:00,
2013-04-13 02:35:00,35.6,35.1,29.00,NW,315,0.0,0.0,98,0.00,,---,0.00,VWS V14.01,2013-04-13 06:35:00,
2013-04-13 02:40:00,35.6,35.1,29.00,NW,315,0.0,0.0,98,0.00,,---,0.00,VWS V14.01,2013-04-13 06:40:00,
2013-04-13 02:45:00,35.6,35.1,29.00,NW,315,0.0,0.0,98,0.00,,---,0.00,VWS V14.01,2013-04-13 06:45:00,
2013-04-13 02:51:00,35.4,34.9,29.00,NW,315,0.0,0.0,98,0.00,,---,0.00,VWS V14.01,2013-04-13 06:51:00,
2013-04-13 02:56:00,35.2,34.7,29.00,NW,315,0.0,0.0,98,0.00,,---,0.00,VWS V14.01,2013-04-13 06:56:00,
2013-04-13 03:01:00,35.2,34.7,29.00,NW,315,0.0,0.0,98,0.00,,---,0.00,VWS V14.01,2013-04-13 07:01:00,
2013-04-13 03:06:00,35.2,34.7,29.00,NW,315,0.0,0.0,98,0.00,,---,0.00,VWS V14.01,2013-04-13 07:06:00,
2013-04-13 03:11:00,35.2,34.7,29.00,NW,315,0.0,0.0,98,0.00,,---,0.00,VWS V14.01,2013-04-13 07:11:00,
2013-04-13 03:16:00,35.4,34.9,29.00,NW,315,0.0,0.0,98,0.00,,---,0.00,VWS V14.01,2013-04-13 07:16:00,
2013-04-13 03:25:00,35.6,35.1,29.00,NW,315,0.0,0.0,98,0.00,,---,0.00,VWS V14.01,2013-04-13 07:25:00,
2013-04-13 03:30:00,35.6,35.1,29.00,NW,315,0.0,0.0,98,0.00,,---,0.00,VWS V14.01,2013-04-13 07:30:00,
2013-04-13 03:35:00,35.6,35.1,29.00,ENE,68,0.0,0.0,98,0.00,,---,0.00,VWS V14.01,2013-04-13 07:35:00,
2013-04-13 03:40:00,35.8,35.3,29.00,SE,135,0.0,0.0,98,0.00,,---,0.00,VWS V14.01,2013-04-13 07:40:00,
2013-04-13 03:45:00,36.0,35.5,29.00,SE,135,0.0,0.0,98,0.00,,---,0.00,VWS V14.01,2013-04-13 07:45:00,
2013-04-13 03:50:00,36.1,35.6,29.00,SE,135,0.0,0.0,98,0.00,,---,0.00,VWS V14.01,2013-04-13 07:50:00,
2013-04-13 03:55:00,36.1,35.6,29.00,SE,135,0.0,0.0,98,0.00,,---,0.00,VWS V14.01,2013-04-13 07:55:00,
2013-04-13 04:00:00,35.8,35.0,29.00,SE,135,0.0,0.0,97,0.00,,---,0.00,VWS V14.01,2013-04-13 08:00:00,
2013-04-13 04:05:00,35.8,34.8,29.00,South,180,0.0,0.0,96,0.00,,---,0.00,VWS V14.01,2013-04-13 08:05:00,
2013-04-13 04:10:00,35.6,34.6,29.00,South,180,0.0,0.0,96,0.00,,---,0.00,VWS V14.01,2013-04-13 08:10:00,
2013-04-13 04:15:00,35.8,34.5,29.00,South,180,0.0,0.0,95,0.00,,---,0.00,VWS V14.01,2013-04-13 08:15:00,
2013-04-13 04:20:00,35.6,34.0,29.00,South,180,0.0,0.0,94,0.00,,---,0.00,VWS V14.01,2013-04-13 08:20:00,
2013-04-13 04:25:00,35.8,33.7,29.00,South,180,0.0,0.0,92,0.00,,---,0.00,VWS V14.01,2013-04-13 08:25:00,
2013-04-13 04:30:00,35.6,33.2,29.00,South,180,0.0,0.0,91,0.00,,---,0.00,VWS V14.01,2013-04-13 08:30:00,
2013-04-13 04:35:00,35.8,33.1,29.00,South,180,0.0,0.0,90,0.00,,---,0.00,VWS V14.01,2013-04-13 08:35:00,
2013-04-13 04:40:00,35.6,32.7,29.00,South,180,0.0,0.0,89,0.00,,---,0.00,VWS V14.01,2013-04-13 08:40:00,
2013-04-13 04:45:00,35.8,32.9,29.03,South,180,0.0,0.0,89,0.00,,---,0.00,VWS V14.01,2013-04-13 08:45:00,
2013-04-13 04:50:00,35.8,32.6,29.03,South,180,0.0,0.0,88,0.00,,---,0.00,VWS V14.01,2013-04-13 08:50:00,
2013-04-13 04:55:00,35.8,32.0,29.03,South,180,0.0,0.0,86,0.00,,---,0.00,VWS V14.01,2013-04-13 08:55:00,
2013-04-13 05:00:00,36.0,31.9,29.00,South,180,0.0,0.0,85,0.00,,---,0.00,VWS V14.01,2013-04-13 09:00:00,
2013-04-13 05:05:00,36.1,31.5,29.00,South,180,0.0,0.0,83,0.00,,---,0.00,VWS V14.01,2013-04-13 09:05:00,
2013-04-13 05:11:00,36.1,31.2,29.00,South,180,0.0,0.0,82,0.00,,---,0.00,VWS V14.01,2013-04-13 09:11:00,
2013-04-13 05:16:00,36.1,31.2,29.03,South,180,0.0,0.0,82,0.00,,---,0.00,VWS V14.01,2013-04-13 09:16:00,
2013-04-13 05:21:00,36.1,30.9,29.03,South,180,0.0,0.0,81,0.00,,---,0.00,VWS V14.01,2013-04-13 09:21:00,
2013-04-13 05:26:00,36.1,30.6,29.03,South,180,0.0,0.0,80,0.00,,---,0.00,VWS V14.01,2013-04-13 09:26:00,
2013-04-13 05:32:00,35.8,30.5,29.03,South,180,0.0,0.0,81,0.00,,---,0.00,VWS V14.01,2013-04-13 09:32:00,
2013-04-13 05:37:00,35.8,30.5,29.03,South,180,0.0,0.0,81,0.00,,---,0.00,VWS V14.01,2013-04-13 09:37:00,
2013-04-13 05:42:00,36.0,30.7,29.03,South,180,0.0,0.0,81,0.00,,---,0.00,VWS V14.01,2013-04-13 09:42:00,
2013-04-13 05:47:00,35.8,30.2,29.03,South,180,0.0,0.0,80,0.00,,---,0.00,VWS V14.01,2013-04-13 09:47:00,
2013-04-13 05:52:00,35.6,30.0,29.03,South,180,0.0,0.0,80,0.00,,---,0.00,VWS V14.01,2013-04-13 09:52:00,
2013-04-13 05:57:00,35.6,30.4,29.03,South,180,0.0,0.0,81,0.00,,---,0.00,VWS V14.01,2013-04-13 09:57:00,
2013-04-13 06:02:00,35.4,30.5,29.03,South,180,0.0,0.0,82,0.00,,---,0.00,VWS V14.01,2013-04-13 10:02:00,
2013-04-13 06:07:00,35.2,30.3,29.03,South,180,0.0,0.0,82,0.00,,---,0.00,VWS V14.01,2013-04-13 10:07:00,
2013-04-13 06:13:00,35.2,30.6,29.03,South,180,0.0,0.0,83,0.00,,---,0.00,VWS V14.01,2013-04-13 10:13:00,
2013-04-13 06:18:00,35.2,30.6,29.03,South,180,0.0,0.0,83,0.00,,---,0.00,VWS V14.01,2013-04-13 10:18:00,
2013-04-13 06:23:00,35.1,30.4,29.03,South,180,0.0,0.0,83,0.00,,---,0.00,VWS V14.01,2013-04-13 10:23:00,
2013-04-13 06:28:00,35.1,30.7,29.03,South,180,0.0,0.0,84,0.00,,---,0.00,VWS V14.01,2013-04-13 10:28:00,
2013-04-13 06:33:00,35.1,30.7,29.03,South,180,0.0,0.0,84,0.00,,---,0.00,VWS V14.01,2013-04-13 10:33:00,
2013-04-13 06:38:00,34.9,30.5,29.03,South,180,0.0,0.0,84,0.00,,---,0.00,VWS V14.01,2013-04-13 10:38:00,
2013-04-13 06:43:00,34.9,30.8,29.03,South,180,0.0,0.0,85,0.00,,---,0.00,VWS V14.01,2013-04-13 10:43:00,
2013-04-13 06:48:00,34.9,30.8,29.03,South,180,0.0,0.0,85,0.00,,---,0.00,VWS V14.01,2013-04-13 10:48:00,
2013-04-13 06:53:00,34.9,31.1,29.03,South,180,0.0,0.0,86,0.00,,---,0.00,VWS V14.01,2013-04-13 10:53:00,
2013-04-13 06:58:00,34.7,30.7,29.03,South,180,0.0,0.0,85,0.00,,---,0.00,VWS V14.01,2013-04-13 10:58:00,
2013-04-13 07:03:00,34.7,31.0,29.03,South,180,0.0,2.2,86,0.00,,---,0.00,VWS V14.01,2013-04-13 11:03:00,
2013-04-13 07:08:00,34.9,31.1,29.03,SW,225,0.0,0.0,86,0.00,,---,0.00,VWS V14.01,2013-04-13 11:08:00,
2013-04-13 07:13:00,34.9,31.1,29.06,SW,225,0.0,0.0,86,0.00,,---,0.00,VWS V14.01,2013-04-13 11:13:00,
2013-04-13 07:18:00,34.9,31.1,29.06,SSW,202,0.0,0.0,86,0.00,,---,0.00,VWS V14.01,2013-04-13 11:18:00,
2013-04-13 07:23:00,34.9,31.1,29.06,SSW,202,0.0,0.0,86,0.00,,---,0.00,VWS V14.01,2013-04-13 11:23:00,
2013-04-13 07:29:00,34.9,31.4,29.06,SSW,202,0.0,0.0,87,0.00,,---,0.00,VWS V14.01,2013-04-13 11:29:00,
2013-04-13 07:34:00,34.9,31.4,29.06,SSW,202,0.0,0.0,87,0.00,,---,0.00,VWS V14.01,2013-04-13 11:34:00,
2013-04-13 07:39:00,34.9,31.4,29.06,SSW,202,0.0,0.0,87,0.00,,---,0.00,VWS V14.01,2013-04-13 11:39:00,
2013-04-13 07:44:00,35.1,31.6,29.06,SSW,202,0.0,0.0,87,0.00,,---,0.00,VWS V14.01,2013-04-13 11:44:00,
2013-04-13 07:49:00,35.2,31.5,29.06,South,180,0.0,0.0,86,0.00,,---,0.00,VWS V14.01,2013-04-13 11:49:00,
2013-04-13 07:54:00,35.4,31.7,29.06,SE,135,0.0,0.0,86,0.00,,---,0.00,VWS V14.01,2013-04-13 11:54:00,
2013-04-13 07:59:00,35.8,31.7,29.06,South,180,0.0,0.0,85,0.00,,---,0.00,VWS V14.01,2013-04-13 11:59:00,
2013-04-13 08:04:00,36.0,31.6,29.06,South,180,0.0,0.0,84,0.00,,---,0.00,VWS V14.01,2013-04-13 12:04:00,
2013-04-13 08:10:00,36.1,31.2,29.06,South,180,3.6,3.6,82,0.00,,---,0.00,VWS V14.01,2013-04-13 12:10:00,
2013-04-13 08:15:00,36.7,31.1,29.06,South,180,3.6,3.6,80,0.00,,---,0.00,VWS V14.01,2013-04-13 12:15:00,
2013-04-13 08:20:00,36.9,30.6,29.06,South,180,3.1,3.1,78,0.00,,---,0.00,VWS V14.01,2013-04-13 12:20:00,
2013-04-13 08:25:00,37.2,30.7,29.06,SW,225,2.7,3.6,77,0.00,,---,0.00,VWS V14.01,2013-04-13 12:25:00,
2013-04-13 08:30:00,37.6,30.7,29.09,SSW,202,0.0,0.0,76,0.00,,---,0.00,VWS V14.01,2013-04-13 12:30:00,
2013-04-13 08:35:00,37.8,30.9,29.09,NW,315,3.1,3.1,76,0.00,,---,0.00,VWS V14.01,2013-04-13 12:35:00,
2013-04-13 08:40:00,38.5,30.2,29.09,West,270,3.6,7.2,72,0.00,,---,0.00,VWS V14.01,2013-04-13 12:40:00,
2013-04-13 08:45:00,38.7,30.1,29.09,NNW,338,3.1,4.9,71,0.00,,---,0.00,VWS V14.01,2013-04-13 12:45:00,
2013-04-13 08:50:00,38.8,30.6,29.09,SW,225,3.6,3.6,72,0.00,,---,0.00,VWS V14.01,2013-04-13 12:50:00,
2013-04-13 08:55:00,39.2,29.9,29.09,NW,315,4.0,4.0,69,0.00,,---,0.00,VWS V14.01,2013-04-13 12:55:00,
2013-04-13 09:00:00,39.2,29.5,29.09,SW,225,2.7,4.9,68,0.00,,---,0.00,VWS V14.01,2013-04-13 13:00:00,
2013-04-13 09:05:00,39.7,30.1,29.09,WSW,248,4.5,4.5,68,0.00,,---,0.00,VWS V14.01,2013-04-13 13:05:00,
2013-04-13 09:10:00,40.1,30.4,29.09,West,270,2.7,2.7,68,0.00,,---,0.00,VWS V14.01,2013-04-13 13:10:00,
2013-04-13 09:15:00,40.6,29.8,29.09,SSW,202,5.8,5.8,65,0.00,,---,0.00,VWS V14.01,2013-04-13 13:15:00,
2013-04-13 09:20:00,41.2,30.3,29.09,SSW,202,0.0,2.2,65,0.00,,---,0.00,VWS V14.01,2013-04-13 13:20:00,
2013-04-13 09:26:00,41.7,29.7,29.09,West,270,4.0,7.2,62,0.00,,---,0.00,VWS V14.01,2013-04-13 13:26:00,
2013-04-13 09:31:00,42.1,29.2,29.09,West,270,2.7,2.7,60,0.00,,---,0.00,VWS V14.01,2013-04-13 13:31:00,
2013-04-13 09:36:00,42.1,28.8,29.09,NW,315,8.3,8.3,59,0.00,,---,0.00,VWS V14.01,2013-04-13 13:36:00,
2013-04-13 09:41:00,42.4,29.1,29.09,WSW,248,5.8,8.7,59,0.00,,---,0.00,VWS V14.01,2013-04-13 13:41:00,
2013-04-13 09:47:00,43.0,28.8,29.09,West,270,0.0,2.7,57,0.00,,---,0.00,VWS V14.01,2013-04-13 13:47:00,
2013-04-13 09:52:00,43.2,28.1,29.09,NW,315,5.8,5.8,55,0.00,,---,0.00,VWS V14.01,2013-04-13 13:52:00,
2013-04-13 09:57:00,43.5,28.0,29.09,SW,225,4.5,8.3,54,0.00,,---,0.00,VWS V14.01,2013-04-13 13:57:00,
2013-04-13 10:02:00,43.7,27.2,29.09,West,270,4.9,4.9,52,0.00,,---,0.00,VWS V14.01,2013-04-13 14:02:00,
2013-04-13 10:07:00,43.9,27.9,29.09,WNW,292,6.3,6.3,53,0.00,,---,0.00,VWS V14.01,2013-04-13 14:07:00,
2013-04-13 10:12:00,44.4,28.4,29.09,SW,225,3.1,4.0,53,0.00,,---,0.00,VWS V14.01,2013-04-13 14:12:00,
2013-04-13 10:17:00,44.4,27.0,29.09,NNW,338,4.0,4.0,50,0.00,,---,0.00,VWS V14.01,2013-04-13 14:17:00,
2013-04-13 10:22:00,44.4,26.5,29.09,WNW,292,6.7,8.3,49,0.00,,---,0.00,VWS V14.01,2013-04-13 14:22:00,
2013-04-13 10:27:00,44.8,26.8,29.12,NNW,338,5.4,8.1,49,0.00,,---,0.00,VWS V14.01,2013-04-13 14:27:00,
2013-04-13 10:32:00,45.5,27.5,29.12,West,270,3.1,8.3,49,0.00,,---,0.00,VWS V14.01,2013-04-13 14:32:00,
2013-04-13 10:37:00,45.3,26.8,29.12,West,270,3.1,4.0,48,0.00,,---,0.00,VWS V14.01,2013-04-13 14:37:00,
2013-04-13 10:42:00,46.2,28.1,29.12,NW,315,6.3,8.3,49,0.00,,---,0.00,VWS V14.01,2013-04-13 14:42:00,
2013-04-13 10:47:00,46.4,27.3,29.12,WSW,248,8.1,8.7,47,0.00,,---,0.00,VWS V14.01,2013-04-13 14:47:00,
2013-04-13 10:52:00,46.2,27.6,29.12,NW,315,8.7,8.7,48,0.00,,---,0.00,VWS V14.01,2013-04-13 14:52:00,
2013-04-13 10:57:00,46.2,27.1,29.14,NNW,338,5.8,5.8,47,0.00,,---,0.00,VWS V14.01,2013-04-13 14:57:00,
2013-04-13 11:03:00,46.8,27.6,29.14,West,270,4.9,4.9,47,0.00,,---,0.00,VWS V14.01,2013-04-13 15:03:00,
2013-04-13 11:08:00,47.7,27.9,29.14,SSW,202,7.6,7.6,46,0.00,,---,0.00,VWS V14.01,2013-04-13 15:08:00,
2013-04-13 11:13:00,47.1,26.9,29.14,NW,315,9.2,9.2,45,0.00,,---,0.00,VWS V14.01,2013-04-13 15:13:00,
2013-04-13 11:18:00,47.3,27.6,29.14,NW,315,5.4,5.4,46,0.00,,---,0.00,VWS V14.01,2013-04-13 15:18:00,
2013-04-13 11:23:00,47.5,27.2,29.14,NNW,338,5.4,7.6,45,0.00,,---,0.00,VWS V14.01,2013-04-13 15:23:00,
2013-04-13 11:28:00,47.8,27.5,29.12,WSW,248,4.5,4.5,45,0.00,,---,0.00,VWS V14.01,2013-04-13 15:28:00,
2013-04-13 11:33:00,47.5,26.7,29.12,North,0,3.1,8.1,44,0.00,,---,0.00,VWS V14.01,2013-04-13 15:33:00,
2013-04-13 11:38:00,47.8,27.0,29.12,West,270,5.4,5.4,44,0.00,,---,0.00,VWS V14.01,2013-04-13 15:38:00,
2013-04-13 11:43:00,48.6,27.6,29.12,NW,315,5.8,8.3,44,0.00,,---,0.00,VWS V14.01,2013-04-13 15:43:00,
2013-04-13 11:48:00,48.7,27.8,29.12,SW,225,6.3,6.3,44,0.00,,---,0.00,VWS V14.01,2013-04-13 15:48:00,
2013-04-13 11:54:00,49.1,28.1,29.12,South,180,7.2,7.2,44,0.00,,---,0.00,VWS V14.01,2013-04-13 15:54:00,
2013-04-13 11:59:00,49.5,27.9,29.14,West,270,8.3,8.7,43,0.00,,---,0.00,VWS V14.01,2013-04-13 15:59:00,
2013-04-13 12:04:00,49.5,27.9,29.14,SW,225,7.6,7.6,43,0.00,,---,0.00,VWS V14.01,2013-04-13 16:04:00,
2013-04-13 12:09:00,48.9,26.9,29.14,SW,225,3.6,6.7,42,0.00,,---,0.00,VWS V14.01,2013-04-13 16:09:00,
2013-04-13 12:14:00,49.6,28.1,29.14,NNW,338,4.9,5.4,43,0.00,,---,0.00,VWS V14.01,2013-04-13 16:14:00,
2013-04-13 12:19:00,49.5,27.9,29.14,WSW,248,0.0,3.6,43,0.00,,---,0.00,VWS V14.01,2013-04-13 16:19:00,
2013-04-13 12:24:00,50.2,28.0,29.14,South,180,3.6,5.8,42,0.00,,---,0.00,VWS V14.01,2013-04-13 16:24:00,
2013-04-13 12:29:00,50.0,27.2,29.14,WSW,248,5.4,5.8,41,0.00,,---,0.00,VWS V14.01,2013-04-13 16:29:00,
2013-04-13 12:34:00,50.5,27.7,29.14,SW,225,6.3,6.3,41,0.00,,---,0.00,VWS V14.01,2013-04-13 16:34:00,
2013-04-13 12:39:00,50.7,27.9,29.14,SW,225,8.1,8.1,41,0.00,,---,0.00,VWS V14.01,2013-04-13 16:39:00,
2013-04-13 12:44:00,51.1,27.6,29.12,NNE,22,8.3,8.3,40,0.00,,---,0.00,VWS V14.01,2013-04-13 16:44:00,
2013-04-13 12:49:00,50.9,28.1,29.12,SSW,202,4.9,8.3,41,0.00,,---,0.00,VWS V14.01,2013-04-13 16:49:00,
2013-04-13 12:54:00,51.6,28.7,29.12,SW,225,8.7,8.7,41,0.00,,---,0.00,VWS V14.01,2013-04-13 16:54:00,
2013-04-13 12:59:00,50.9,27.5,29.12,WSW,248,2.7,8.3,40,0.00,,---,0.00,VWS V14.01,2013-04-13 16:59:00,
2013-04-13 13:04:00,52.2,28.6,29.12,SSW,202,3.6,5.8,40,0.00,,---,0.00,VWS V14.01,2013-04-13 17:04:00,
2013-04-13 13:09:00,52.5,28.3,29.12,SW,225,4.0,6.3,39,0.00,,---,0.00,VWS V14.01,2013-04-13 17:09:00,
2013-04-13 13:14:00,52.5,28.3,29.12,West,270,4.5,8.1,39,0.00,,---,0.00,VWS V14.01,2013-04-13 17:14:00,
2013-04-13 13:19:00,53.2,28.9,29.12,SW,225,4.5,4.5,39,0.00,,---,0.00,VWS V14.01,2013-04-13 17:19:00,
2013-04-13 13:24:00,53.6,28.6,29.12,South,180,4.0,4.0,38,0.00,,---,0.00,VWS V14.01,2013-04-13 17:24:00,
2013-04-13 13:29:00,53.8,29.4,29.12,WSW,248,8.7,8.7,39,0.00,,---,0.00,VWS V14.01,2013-04-13 17:29:00,
2013-04-13 13:34:00,54.1,29.8,29.12,WNW,292,8.1,8.1,39,0.00,,---,0.00,VWS V14.01,2013-04-13 17:34:00,
2013-04-13 13:39:00,53.6,28.6,29.12,West,270,2.2,5.8,38,0.00,,---,0.00,VWS V14.01,2013-04-13 17:39:00,
2013-04-13 13:44:00,53.6,28.6,29.12,NW,315,4.9,8.1,38,0.00,,---,0.00,VWS V14.01,2013-04-13 17:44:00,
2013-04-13 13:49:00,54.0,29.6,29.12,SE,135,4.9,6.3,39,0.00,,---,0.00,VWS V14.01,2013-04-13 17:49:00,
2013-04-13 13:54:00,54.5,30.1,29.12,SSE,158,7.6,7.6,39,0.00,,---,0.00,VWS V14.01,2013-04-13 17:54:00,
2013-04-13 14:00:00,54.5,29.4,29.12,SW,225,5.8,11.0,38,0.00,,---,0.00,VWS V14.01,2013-04-13 18:00:00,
2013-04-13 14:05:00,55.0,29.9,29.12,WNW,292,4.0,4.0,38,0.00,,---,0.00,VWS V14.01,2013-04-13 18:05:00,
2013-04-13 14:10:00,54.7,29.6,29.12,SSW,202,5.4,5.4,38,0.00,,---,0.00,VWS V14.01,2013-04-13 18:10:00,
2013-04-13 14:15:00,55.2,30.1,29.12,WNW,292,3.6,4.0,38,0.00,,---,0.00,VWS V14.01,2013-04-13 18:15:00,
2013-04-13 14:20:00,55.0,29.3,29.12,WSW,248,5.4,6.3,37,0.00,,---,0.00,VWS V14.01,2013-04-13 18:20:00,
2013-04-13 14:25:00,55.4,29.6,29.12,WSW,248,8.3,10.1,37,0.00,,---,0.00,VWS V14.01,2013-04-13 18:25:00,
2013-04-13 14:27:00,55.4,29.6,29.12,NW,315,4.5,5.8,37,0.00,,---,0.00,VWS V14.01,2013-04-13 18:27:00,
2013-04-13 14:32:00,55.6,29.7,29.12,NW,315,4.9,4.9,37,0.00,,---,0.00,VWS V14.01,2013-04-13 18:32:00,
2013-04-13 14:37:00,56.3,30.4,29.12,West,270,4.0,5.4,37,0.00,,---,0.00,VWS V14.01,2013-04-13 18:37:00,
2013-04-13 14:42:00,56.1,30.2,29.12,SSE,158,6.3,6.3,37,0.00,,---,0.00,VWS V14.01,2013-04-13 18:42:00,
2013-04-13 14:47:00,56.5,30.5,29.12,SW,225,8.3,8.3,37,0.00,,---,0.00,VWS V14.01,2013-04-13 18:47:00,
2013-04-13 14:52:00,56.5,29.9,29.12,NW,315,0.0,4.0,36,0.00,,---,0.00,VWS V14.01,2013-04-13 18:52:00,
2013-04-13 14:57:00,56.8,30.2,29.12,West,270,8.7,10.1,36,0.00,,---,0.00,VWS V14.01,2013-04-13 18:57:00,
2013-04-13 15:03:00,57.6,31.5,29.12,SSW,202,6.3,6.3,37,0.00,,---,0.00,VWS V14.01,2013-04-13 19:03:00,
2013-04-13 15:08:00,57.4,30.7,29.12,SSE,158,6.3,9.6,36,0.00,,---,0.00,VWS V14.01,2013-04-13 19:08:00,
2013-04-13 15:13:00,58.1,31.3,29.12,SW,225,10.1,10.5,36,0.00,,---,0.00,VWS V14.01,2013-04-13 19:13:00,
2013-04-13 15:18:00,57.6,30.8,29.12,West,270,4.0,8.7,36,0.00,,---,0.00,VWS V14.01,2013-04-13 19:18:00,
2013-04-13 15:23:00,57.9,31.1,29.12,WNW,292,5.8,7.6,36,0.00,,---,0.00,VWS V14.01,2013-04-13 19:23:00,
2013-04-13 15:28:00,58.5,31.6,29.12,NW,315,5.4,6.3,36,0.00,,---,0.00,VWS V14.01,2013-04-13 19:28:00,
2013-04-13 15:33:00,57.9,31.1,29.12,South,180,8.1,8.1,36,0.00,,---,0.00,VWS V14.01,2013-04-13 19:33:00,
2013-04-13 15:38:00,58.1,30.6,29.12,NW,315,4.0,9.6,35,0.00,,---,0.00,VWS V14.01,2013-04-13 19:38:00,
2013-04-13 15:43:00,58.1,31.3,29.12,NW,315,7.6,8.7,36,0.00,,---,0.00,VWS V14.01,2013-04-13 19:43:00,
2013-04-13 15:48:00,58.1,31.3,29.12,SW,225,5.4,5.4,36,0.00,,---,0.00,VWS V14.01,2013-04-13 19:48:00,
2013-04-13 15:53:00,57.7,30.3,29.12,West,270,6.3,11.0,35,0.00,,---,0.00,VWS V14.01,2013-04-13 19:53:00,
2013-04-13 15:58:00,58.3,30.8,29.12,NW,315,5.8,5.8,35,0.00,,---,0.00,VWS V14.01,2013-04-13 19:58:00,
2013-04-13 16:03:00,58.5,30.9,29.12,WNW,292,8.1,11.0,35,0.00,,---,0.00,VWS V14.01,2013-04-13 20:03:00,
2013-04-13 16:08:00,59.5,31.9,29.12,SW,225,4.0,5.8,35,0.00,,---,0.00,VWS V14.01,2013-04-13 20:08:00,
2013-04-13 16:13:00,59.7,32.0,29.12,West,270,5.8,8.3,35,0.00,,---,0.00,VWS V14.01,2013-04-13 20:13:00,
2013-04-13 16:18:00,59.5,31.9,29.12,SW,225,5.4,8.7,35,0.00,,---,0.00,VWS V14.01,2013-04-13 20:18:00,
2013-04-13 16:23:00,59.2,31.6,29.12,NW,315,8.1,8.1,35,0.00,,---,0.00,VWS V14.01,2013-04-13 20:23:00,
2013-04-13 16:28:00,59.7,31.3,29.09,SSW,202,5.4,8.7,34,0.00,,---,0.00,VWS V14.01,2013-04-13 20:28:00,
2013-04-13 16:33:00,60.4,32.7,29.09,NW,315,5.8,5.8,35,0.00,,---,0.00,VWS V14.01,2013-04-13 20:33:00,
2013-04-13 16:38:00,60.6,32.8,29.09,NW,315,8.7,8.7,35,0.00,,---,0.00,VWS V14.01,2013-04-13 20:38:00,
2013-04-13 16:43:00,60.6,32.1,29.09,SW,225,10.1,10.1,34,0.00,,---,0.00,VWS V14.01,2013-04-13 20:43:00,
2013-04-13 16:48:00,60.3,31.8,29.09,SSW,202,4.9,7.6,34,0.00,,---,0.00,VWS V14.01,2013-04-13 20:48:00,
2013-04-13 16:53:00,60.6,32.1,29.09,SW,225,5.4,7.2,34,0.00,,---,0.00,VWS V14.01,2013-04-13 20:53:00,
2013-04-13 16:58:00,60.4,32.0,29.09,SW,225,4.0,6.7,34,0.00,,---,0.00,VWS V14.01,2013-04-13 20:58:00,
2013-04-13 17:05:00,60.8,32.3,29.09,NW,315,3.1,3.1,34,0.00,,---,0.00,VWS V14.01,2013-04-13 21:05:00,
2013-04-13 17:10:00,61.0,32.4,29.09,NW,315,4.0,5.8,34,0.00,,---,0.00,VWS V14.01,2013-04-13 21:10:00,
2013-04-13 17:15:00,61.3,32.8,29.12,WSW,248,10.1,10.1,34,0.00,,---,0.00,VWS V14.01,2013-04-13 21:15:00,
2013-04-13 17:20:00,60.3,31.8,29.12,NW,315,5.8,10.1,34,0.00,,---,0.00,VWS V14.01,2013-04-13 21:20:00,
2013-04-13 17:25:00,61.0,31.7,29.12,NW,315,2.7,8.7,33,0.00,,---,0.00,VWS V14.01,2013-04-13 21:25:00,
2013-04-13 17:30:00,61.0,32.4,29.12,NW,315,4.9,5.8,34,0.00,,---,0.00,VWS V14.01,2013-04-13 21:30:00,
2013-04-13 17:35:00,60.6,31.4,29.12,SW,225,4.9,9.6,33,0.00,,---,0.00,VWS V14.01,2013-04-13 21:35:00,
2013-04-13 17:40:00,61.2,31.9,29.12,West,270,5.4,5.4,33,0.00,,---,0.00,VWS V14.01,2013-04-13 21:40:00,
2013-04-13 17:45:00,60.8,31.5,29.12,West,270,3.6,5.8,33,0.00,,---,0.00,VWS V14.01,2013-04-13 21:45:00,
2013-04-13 17:50:00,60.6,31.4,29.12,NW,315,4.0,4.0,33,0.00,,---,0.00,VWS V14.01,2013-04-13 21:50:00,
2013-04-13 17:55:00,61.0,31.7,29.12,North,0,4.5,8.3,33,0.00,,---,0.00,VWS V14.01,2013-04-13 21:55:00,
2013-04-13 18:00:00,60.8,30.8,29.12,NNW,338,6.7,8.1,32,0.00,,---,0.00,VWS V14.01,2013-04-13 22:00:00,
2013-04-13 18:05:00,61.0,31.7,29.12,West,270,7.6,7.6,33,0.00,,---,0.00,VWS V14.01,2013-04-13 22:05:00,
2013-04-13 18:10:00,60.8,29.2,29.12,NW,315,3.6,8.3,30,0.00,,---,0.00,VWS V14.01,2013-04-13 22:10:00,
2013-04-13 18:15:00,60.6,29.8,29.09,NW,315,4.9,5.8,31,0.00,,---,0.00,VWS V14.01,2013-04-13 22:15:00,
2013-04-13 18:20:00,60.6,29.8,29.09,WSW,248,4.9,4.9,31,0.00,,---,0.00,VWS V14.01,2013-04-13 22:20:00,
2013-04-13 18:25:00,60.8,30.0,29.09,NW,315,3.6,4.0,31,0.00,,---,0.00,VWS V14.01,2013-04-13 22:25:00,
2013-04-13 18:30:00,61.2,30.3,29.09,NW,315,5.4,5.4,31,0.00,,---,0.00,VWS V14.01,2013-04-13 22:30:00,
2013-04-13 18:35:00,61.3,30.5,29.09,WSW,248,4.0,4.9,31,0.00,,---,0.00,VWS V14.01,2013-04-13 22:35:00,
2013-04-13 18:40:00,61.9,30.9,29.09,SW,225,4.0,4.0,31,0.00,,---,0.00,VWS V14.01,2013-04-13 22:40:00,
2013-04-13 18:45:00,62.2,31.2,29.09,South,180,5.8,8.1,31,0.00,,---,0.00,VWS V14.01,2013-04-13 22:45:00,
2013-04-13 18:50:00,61.7,30.8,29.09,SW,225,3.1,4.0,31,0.00,,---,0.00,VWS V14.01,2013-04-13 22:50:00,
2013-04-13 18:55:00,61.9,30.9,29.09,WSW,248,4.5,6.3,31,0.00,,---,0.00,VWS V14.01,2013-04-13 22:55:00,
2013-04-13 19:00:00,61.9,30.1,29.09,West,270,5.4,8.1,30,0.00,,---,0.00,VWS V14.01,2013-04-13 23:00:00,
2013-04-13 19:05:00,61.3,29.7,29.09,West,270,4.5,5.4,30,0.00,,---,0.00,VWS V14.01,2013-04-13 23:05:00,
2013-04-13 19:10:00,61.2,30.3,29.09,NW,315,5.8,6.3,31,0.00,,---,0.00,VWS V14.01,2013-04-13 23:10:00,
2013-04-13 19:15:00,60.6,29.0,29.09,WNW,292,4.0,5.8,30,0.00,,---,0.00,VWS V14.01,2013-04-13 23:15:00,
2013-04-13 19:20:00,60.1,29.4,29.09,NW,315,5.4,6.3,31,0.00,,---,0.00,VWS V14.01,2013-04-13 23:20:00,
2013-04-13 19:25:00,60.1,29.4,29.09,NNW,338,3.6,3.6,31,0.00,,---,0.00,VWS V14.01,2013-04-13 23:25:00,
2013-04-13 19:30:00,59.7,29.1,29.09,WNW,292,3.6,5.4,31,0.00,,---,0.00,VWS V14.01,2013-04-13 23:30:00,
2013-04-13 19:35:00,59.4,29.5,29.09,NW,315,4.9,4.9,32,0.00,,---,0.00,VWS V14.01,2013-04-13 23:35:00,
2013-04-13 19:40:00,59.0,29.2,29.09,North,0,3.6,3.6,32,0.00,,---,0.00,VWS V14.01,2013-04-13 23:40:00,
2013-04-13 19:45:00,58.5,28.7,29.09,WSW,248,2.7,2.7,32,0.00,,---,0.00,VWS V14.01,2013-04-13 23:45:00,
2013-04-13 19:50:00,57.9,29.0,29.09,North,0,2.7,2.7,33,0.00,,---,0.00,VWS V14.01,2013-04-13 23:50:00,
2013-04-13 19:55:00,57.6,29.4,29.09,NNW,338,0.0,2.7,34,0.00,,---,0.00,VWS V14.01,2013-04-13 23:55:00,
2013-04-13 20:00:00,57.2,29.1,29.09,NW,315,2.7,3.6,34,0.00,,---,0.00,VWS V14.01,2013-04-14 00:00:00,
2013-04-13 20:05:00,56.8,28.8,29.09,North,0,4.0,4.0,34,0.00,,---,0.00,VWS V14.01,2013-04-14 00:05:00,
2013-04-13 20:10:00,56.7,29.3,29.09,North,0,0.0,0.0,35,0.00,,---,0.00,VWS V14.01,2013-04-14 00:10:00,
2013-04-13 20:15:00,56.3,29.0,29.09,North,0,0.0,0.0,35,0.00,,---,0.00,VWS V14.01,2013-04-14 00:15:00,
2013-04-13 20:20:00,55.9,28.7,29.09,North,0,0.0,0.0,35,0.00,,---,0.00,VWS V14.01,2013-04-14 00:20:00,
2013-04-13 20:25:00,55.2,30.7,29.09,North,0,0.0,0.0,39,0.00,,---,0.00,VWS V14.01,2013-04-14 00:25:00,
2013-04-13 20:30:00,54.5,31.3,29.09,NNW,338,0.0,0.0,41,0.00,,---,0.00,VWS V14.01,2013-04-14 00:30:00,
2013-04-13 20:35:00,54.3,29.3,29.09,NW,315,0.0,0.0,38,0.00,,---,0.00,VWS V14.01,2013-04-14 00:35:00,
2013-04-13 20:40:00,53.8,28.8,29.09,North,0,0.0,0.0,38,0.00,,---,0.00,VWS V14.01,2013-04-14 00:40:00,
2013-04-13 20:45:00,54.0,28.3,29.09,NW,315,0.0,0.0,37,0.00,,---,0.00,VWS V14.01,2013-04-14 00:45:00,
2013-04-13 20:50:00,53.1,32.3,29.09,NW,315,0.0,0.0,45,0.00,,---,0.00,VWS V14.01,2013-04-14 00:50:00,
2013-04-13 20:55:00,52.3,33.2,29.09,NW,315,0.0,0.0,48,0.00,,---,0.00,VWS V14.01,2013-04-14 00:55:00,
2013-04-13 21:00:00,51.6,33.1,29.06,NW,315,0.0,0.0,49,0.00,,---,0.00,VWS V14.01,2013-04-14 01:00:00,
2013-04-13 21:05:00,51.1,34.1,29.06,NW,315,0.0,0.0,52,0.00,,---,0.00,VWS V14.01,2013-04-14 01:05:00,
2013-04-13 21:10:00,50.2,34.2,29.06,NW,315,0.0,0.0,54,0.00,,---,0.00,VWS V14.01,2013-04-14 01:10:00,
2013-04-13 21:15:00,49.5,34.4,29.06,NW,315,0.0,0.0,56,0.00,,---,0.00,VWS V14.01,2013-04-14 01:15:00,
2013-04-13 21:20:00,49.1,34.1,29.06,NW,315,0.0,0.0,56,0.00,,---,0.00,VWS V14.01,2013-04-14 01:20:00,
2013-04-13 21:25:00,48.7,34.2,29.06,NW,315,0.0,0.0,57,0.00,,---,0.00,VWS V14.01,2013-04-14 01:25:00,
2013-04-13 21:30:00,48.2,34.6,29.06,NW,315,0.0,0.0,59,0.00,,---,0.00,VWS V14.01,2013-04-14 01:30:00,
2013-04-13 21:35:00,47.8,35.1,29.06,NW,315,0.0,0.0,61,0.00,,---,0.00,VWS V14.01,2013-04-14 01:35:00,
2013-04-13 21:40:00,47.5,34.3,29.06,NW,315,0.0,0.0,60,0.00,,---,0.00,VWS V14.01,2013-04-14 01:40:00,
2013-04-13 21:45:00,47.1,34.4,29.09,NW,315,0.0,0.0,61,0.00,,---,0.00,VWS V14.01,2013-04-14 01:45:00,
2013-04-13 21:50:00,46.9,33.8,29.09,NW,315,0.0,0.0,60,0.00,,---,0.00,VWS V14.01,2013-04-14 01:50:00,
2013-04-13 21:55:00,46.4,34.9,29.09,NW,315,0.0,0.0,64,0.00,,---,0.00,VWS V14.01,2013-04-14 01:55:00,
2013-04-13 22:00:00,46.0,35.3,29.06,NW,315,0.0,0.0,66,0.00,,---,0.00,VWS V14.01,2013-04-14 02:00:00,
2013-04-13 22:05:00,45.9,35.2,29.06,NW,315,0.0,0.0,66,0.00,,---,0.00,VWS V14.01,2013-04-14 02:05:00,
2013-04-13 22:10:00,45.9,35.5,29.06,NW,315,0.0,0.0,67,0.00,,---,0.00,VWS V14.01,2013-04-14 02:10:00,
2013-04-13 22:15:00,45.5,35.2,29.09,NW,315,0.0,0.0,67,0.00,,---,0.00,VWS V14.01,2013-04-14 02:15:00,
2013-04-13 22:20:00,45.3,35.4,29.09,NW,315,0.0,0.0,68,0.00,,---,0.00,VWS V14.01,2013-04-14 02:20:00,
2013-04-13 22:25:00,45.1,35.2,29.09,NW,315,0.0,0.0,68,0.00,,---,0.00,VWS V14.01,2013-04-14 02:25:00,
2013-04-13 22:30:00,44.8,35.6,29.09,NW,315,0.0,0.0,70,0.00,,---,0.00,VWS V14.01,2013-04-14 02:30:00,
2013-04-13 22:35:00,44.6,35.1,29.09,NW,315,0.0,0.0,69,0.00,,---,0.00,VWS V14.01,2013-04-14 02:35:00,
2013-04-13 22:40:00,44.2,35.1,29.09,NW,315,0.0,0.0,70,0.00,,---,0.00,VWS V14.01,2013-04-14 02:40:00,
2013-04-13 22:45:00,44.1,35.3,29.09,NW,315,0.0,0.0,71,0.00,,---,0.00,VWS V14.01,2013-04-14 02:45:00,
2013-04-13 22:50:00,44.1,36.3,29.09,NW,315,0.0,0.0,74,0.00,,---,0.00,VWS V14.01,2013-04-14 02:50:00,
2013-04-13 22:55:00,43.9,35.8,29.09,NW,315,0.0,0.0,73,0.00,,---,0.00,VWS V14.01,2013-04-14 02:55:00,
2013-04-13 23:00:00,43.7,36.0,29.09,NW,315,0.0,0.0,74,0.00,,---,0.00,VWS V14.01,2013-04-14 03:00:00,
2013-04-13 23:05:00,43.5,36.1,29.09,NW,315,0.0,0.0,75,0.00,,---,0.00,VWS V14.01,2013-04-14 03:05:00,
2013-04-13 23:10:00,43.3,35.6,29.09,NW,315,0.0,0.0,74,0.00,,---,0.00,VWS V14.01,2013-04-14 03:10:00,
2013-04-13 23:15:00,43.0,35.3,29.09,NW,315,0.0,0.0,74,0.00,,---,0.00,VWS V14.01,2013-04-14 03:15:00,
2013-04-13 23:20:00,42.8,35.1,29.09,NW,315,0.0,0.0,74,0.00,,---,0.00,VWS V14.01,2013-04-14 03:20:00,
2013-04-13 23:25:00,42.6,35.6,29.09,NW,315,0.0,0.0,76,0.00,,---,0.00,VWS V14.01,2013-04-14 03:25:00,
2013-04-13 23:30:00,42.6,36.2,29.09,NW,315,0.0,0.0,78,0.00,,---,0.00,VWS V14.01,2013-04-14 03:30:00,
2013-04-13 23:35:00,42.4,36.4,29.09,NW,315,0.0,0.0,79,0.00,,---,0.00,VWS V14.01,2013-04-14 03:35:00,
2013-04-13 23:40:00,42.4,36.7,29.09,NW,315,0.0,0.0,80,0.00,,---,0.00,VWS V14.01,2013-04-14 03:40:00,
2013-04-13 23:45:00,42.3,36.5,29.09,NW,315,0.0,0.0,80,0.00,,---,0.00,VWS V14.01,2013-04-14 03:45:00,
2013-04-13 23:50:00,42.1,36.4,29.09,NW,315,0.0,0.0,80,0.00,,---,0.00,VWS V14.01,2013-04-14 03:50:00,
2013-04-13 23:55:00,41.9,36.5,29.09,NW,315,0.0,0.0,81,0.00,,---,0.00,VWS V14.01,2013-04-14 03:55:00,